Location: Newark
(51.0089°N, 21.5817°E)
Time: 00:36:53
(UTC+00:00)

XW-2F - Pass Details

Date: 27 February 2020
Orbit: 504 x 521 km, 97.5° (Epoch: 01 April)

Event Time Altitude Azimuth Distance (km) Brightness Sun altitude
Rises 03:37:51 0° 29° (NNE) 2,637 ? -17.4°
Reaches altitude 10° 03:40:43 10° 53° (NE) 1,748 ? -17.0°
Maximum altitude 03:42:56 15° 90° (E) 1,456 ? -16.6°
Drops below altitude 10° 03:45:10 10° 126° (SE) 1,745 ? -16.3°
Sets 03:48:01 0° 150° (SSE) 2,629 ? -15.8°
